Regional Weather Roundup
Issued by NWS Newport/Morehead, NC

Current Version | Previous Version | Graphics & Text | Print | Product List | Glossary Off
Versions: 1 2 3 4 5 6 7 8 9 10 11 12 13 14 15 16 17 18 19 20 21 22 23 24 25 26 27 28 29 30 31 32 33 34 35 36 37 38 39 40 41 42 43 44 45 46 47 48 49 50

000
ASUS42 KMHX 241925
RWRMHX
WEATHER ROUNDUP FOR EASTERN NORTH CAROLINA
NATIONAL WEATHER SERVICE NEWPORT/MOREHEAD CITY NC
200 PM EST SAT FEB 24 2018

NOTE: "FAIR" INDICATES FEW OR NO CLOUDS BELOW 12,000 FEET
WITH NO SIGNIFICANT WEATHER AND/OR OBSTRUCTIONS TO VISIBILITY

NCZ015>017-031-032-045>047-102-103-242000-
NORTH COAST

CITY           SKY/WX    TMP DP  RH WIND       PRES   REMARKS
EDENTON        FAIR      77  62  59 W9        30.13F
ELIZABETH CITY FAIR      74  63  68 S12       30.12F
KITTY HAWK     FAIR      73  59  62 SW8G16    30.12F
MANTEO         FAIR      71  59  66 W9        30.13F

$$

NCZ045>047-081-094-103-104-242000-
CENTRAL COAST

CITY           SKY/WX    TMP DP  RH WIND       PRES   REMARKS
FRISCO         FAIR      70  62  76 SW9G17    30.17F

$$

NCZ095-097-098-100-101-242000-
SOUTHERN COAST

CITY           SKY/WX    TMP DP  RH WIND       PRES   REMARKS
BEAUFORT       FAIR      70  63  78 SW14      30.18F
CEDAR ISLAND   NOT AVBL
JACKSONVILLE   PTSUNNY   78  61  55 SW10      30.15F
PINEY ISLAND   NOT AVBL
WILMINGTON     PTSUNNY   79  61  53 SW17G24   30.16F


$$

NCZ011>013-027>030-043-044-078>080-089-090>093-098-242000-
COASTAL PLAIN

CITY           SKY/WX    TMP DP  RH WIND       PRES   REMARKS
AHOSKIE        PTSUNNY   75  60  59 S8        30.11F
CLINTON        FAIR      76  64  65 SW8       30.16F
ELIZABETHTOWN  NOT AVBL
GOLDSBORO      FAIR      76  61  58 SW17G23   30.14F
GREENVILLE     FAIR      77  61  57 W13G18    30.15F
HAVELOCK       CLOUDY    77  66  68 SW16      30.17F
KENANSVILLE    FAIR      77  61  57 W12       30.16F
KINSTON        PTSUNNY   75  61  60 SW10      30.16F
NEW BERN       FAIR      76  62  62 SW12      30.16F
RICHLANDS      NOT AVBL
ROCKY MOUNT    FAIR      76  60  57 SW14G23   30.13F
WASHINGTON     FAIR      75  61  60 W9        30.14F
WHITEVILLE     FAIR      79  60  50 SW8       30.16F

$$

AMZ130-135-150-152-154-156-158-170-250-252-270-ANZ085-086-088-633-658-670-242000-
MARINE OBSERVATIONS

STATION/POSITION TIME  TEMP    WIND        PRES    WAVE   SWELL
                       AIR SEA DIR/SP/G            HT/PER HT/PER
                 (UTC) (F)     (DEG/KT/KT) (MB)    (FT/S) (FT/S)
CHESAPEAKE LIGHT NOT AVBL
64 E VA BEACH    1850   53 50  210/  8/ 10 1020.6    3/ 9   3/ 9
DUCK             1900   68 47  240/  7/ 10 1019.7
2 E DUCK         1830      48                N/A     3/ 9   2/11
OREGON INLET     1900   62 57  190/ 14/ 15 1020.5
13E OREGON INLT  1848      50                N/A     3/ 9   3/ 9
HATTERAS CG      1900   68 61  230/ 10/ 15 1021.5
DIAMOND BUOY     1910   71     230/ 17/ 21 1021.8
CAPE LOOKOUT     1900          220/  9/ 15 1022.3
BEAUFORT LAB     1900   69 60  220/  6/ 11 1022.0
30 SE NEW RVR IN 1808   70 69  220/ 12/ 16 1022.7
30 SE NEW RVR IN 1830      69                N/A     4/ 9   2/11
27 SE WRIGHTSVLE 1808   69 69  210/ 16/ 21 1023.0
5 SE WRIGHTSVLE  1908   64 60  210/ 12/ 16 1021.9
225 S CAPE HAT   1850   72 73  190/ 10/ 12 1024.3    6/ 9   5/ 9
41 SE CHARLESTON 1910   71     230/  6/  8 1022.4

$$




USA.gov is the U.S. government's official web portal to all federal, state and local government web resources and services.